Pullman, WA

5:41 PM PDT on April 22, 2018 (GMT -0700)
Pullman-Moscow Regional

Weather History for KPUW - August, 2013

Change the Weather History Date:

Sunday, August 4, 2013

  Actual Average Record
Temperature  
Mean Temperature 68 °F 67 °F  
Max Temperature 84 °F 84 °F 110 °F (1961)
Min Temperature 51 °F 51 °F 36 °F (1954)
Degree Days  
Heating Degree Days 0 1  
Month to date heating degree days 12 4  
Since 1 June heating degree days 226 274  
Since 1 July heating degree days 36 68  
Cooling Degree Days 3 4  
Month to date cooling degree days 3 16  
Year to date cooling degree days 153 116  
Since 1 June cooling degree days 141 111  
Growing Degree Days 18 (Base 50)    
Moisture  
Dew Point 49 °F    
Average Humidity 57    
Maximum Humidity 93    
Minimum Humidity 20    
Precipitation  
Precipitation 0.00 in 0.02 in 0.07 in (1941)
Month to date precipitation 0.29 0.07  
Year to date precipitation 8.72 10.35  
Sea Level Pressure  
Sea Level Pressure 30.02 in    
Wind  
Wind Speed 3 mph (SW)    
Max Wind Speed 13 mph    
Max Gust Speed 17 mph    
Visibility 10 miles    
Events      
T = Trace of Precipitation, MM = Missing Value Source: NWS Daily Summary

Daily Weather History Graph

Daily Weather History Graph

Search for Another Location

Airport or City:

Astronomy

Aug. 04, 2013 Rise Set
Actual Time 5:32 AM PDT 8:15 PM PDT
Civil Twilight 4:57 AM PDT 8:49 PM PDT
Nautical Twilight 4:13 AM PDT 9:33 PM PDT
Astronomical Twilight 3:22 AM PDT 10:24 PM PDT
Moon 3:36 AM PDT (8/4) 6:41 PM PDT (8/4)
Length of Visible Light 15h 52m
Length of Day
14h 42m
Waning Crescent, 4% of the Moon is Illuminated
Aug 4
Waning Crescent
Aug 6
New
Aug 14
First Quarter
Aug 20
Full
Aug 28
Last Quarter

Hourly Weather History & Observations

Time (PDT) Temp. Dew Point Humidity Pressure Visibility Wind Dir Wind Speed Gust Speed Precip Events Conditions
12:53 AM 55.0 °F 50.0 °F 83% 30.07 in 10.0 mi Calm Calm - N/A   Clear
1:53 AM 54.0 °F 51.1 °F 90% 30.06 in 10.0 mi Calm Calm - N/A   Clear
2:53 AM 53.1 °F 48.9 °F 86% 30.06 in 10.0 mi Calm Calm - N/A   Clear
3:53 AM 55.9 °F 50.0 °F 80% 30.06 in 10.0 mi Calm Calm - N/A   Clear
4:53 AM 57.0 °F 51.1 °F 81% 30.05 in 10.0 mi Calm Calm - N/A   Clear
5:53 AM 53.1 °F 48.9 °F 86% 30.06 in 10.0 mi Calm Calm - N/A   Clear
6:53 AM 60.1 °F 53.1 °F 78% 30.06 in 10.0 mi Calm Calm - N/A   Clear
7:53 AM 64.9 °F 54.0 °F 68% 30.06 in 10.0 mi East 8.1 mph - N/A   Clear
8:53 AM 69.1 °F 54.0 °F 58% 30.07 in 10.0 mi East 8.1 mph - N/A   Clear
9:53 AM 73.0 °F 54.0 °F 51% 30.07 in 10.0 mi East 4.6 mph - N/A   Clear
10:53 AM 75.0 °F 53.1 °F 46% 30.06 in 10.0 mi Variable 3.5 mph - N/A   Clear
11:53 AM 78.1 °F 51.1 °F 39% 30.05 in 10.0 mi WSW 6.9 mph - N/A   Clear
12:53 PM 79.0 °F 50.0 °F 36% 30.05 in 10.0 mi Calm Calm - N/A   Scattered Clouds
1:53 PM 82.0 °F 50.0 °F 33% 30.03 in 10.0 mi WNW 6.9 mph - N/A   Clear
2:53 PM 82.9 °F 46.0 °F 27% 30.01 in 10.0 mi Variable 4.6 mph - N/A   Clear
3:53 PM 84.0 °F 44.1 °F 25% 29.99 in 10.0 mi SW 10.4 mph - N/A   Clear
4:53 PM 84.0 °F 42.1 °F 23% 29.96 in 10.0 mi WSW 8.1 mph - N/A   Clear
5:53 PM 82.9 °F 37.0 °F 19% 29.96 in 10.0 mi WSW 8.1 mph - N/A   Clear
6:53 PM 81.0 °F 44.1 °F 27% 29.95 in 10.0 mi WNW 4.6 mph - N/A   Clear
7:53 PM 75.9 °F 45.0 °F 33% 29.95 in 10.0 mi Calm Calm - N/A   Clear
8:53 PM 62.1 °F 50.0 °F 65% 29.97 in 10.0 mi Calm Calm - N/A   Clear
9:53 PM 60.1 °F 48.9 °F 67% 29.97 in 10.0 mi Calm Calm - N/A   Clear
10:53 PM 57.0 °F 48.0 °F 72% 29.98 in 10.0 mi Calm Calm - N/A   Clear
11:53 PM 54.0 °F 48.0 °F 80% 29.97 in 10.0 mi Calm Calm - N/A   Clear